This demonstration page uses our WeatherBlox Daily Observations layout. Learn more.

Left ArrowRight Arrow

Hourly Observations for December 15, 2016

Temp ( °F °C ) Dew Point ( °F °C ) Humidity (%) Winds ( mph kmh ) Pressure ( in mb ) Visibility ( mi km ) Precip ( " mm )
12:51 am 00:51 Clear 43 6.1 33 0.6 68 68 N N/A 30.10 1019 10 16 N/A
1:51 am 01:51 Clear 41 5 33 0.6 73 73 N 3 6 30.10 1019 10 16 N/A
2:51 am 02:51 Clear 41 5 33 0.6 73 73 N N/A 30.09 1019 10 16 N/A
3:51 am 03:51 Clear 39 3.9 33 0.6 79 79 N N/A 30.09 1019 10 16 N/A
4:51 am 04:51 Clear 39 3.9 33 0.6 79 79 ENE 3 6 30.09 1019 10 16 N/A
5:51 am 05:51 Clear 37 2.8 31 -0.6 79 79 SE 6 9 30.11 1020 10 16 N/A
6:51 am 06:51 Clear 38 3.3 31 -0.6 76 76 S 3 6 30.12 1020 10 16 N/A
7:51 am 07:51 Sunny 41 5 32 undefined 70 70 SE 5 7 30.11 1020 10 16 N/A
8:51 am 08:51 Sunny 48 8.9 33 0.6 56 56 SE 7 11 30.13 1020 10 16 N/A
9:51 am 09:51 Sunny 58 14.4 32 undefined 38 38 SE 7 11 30.11 1020 10 16 N/A
10:51 am 10:51 Sunny 62 16.7 32 undefined 32 32 ESE 6 9 30.09 1019 10 16 N/A
11:51 am 11:51 Sunny 66 18.9 35 1.7 32 32 S 8 13 30.05 1018 10 16 N/A
12:51 pm 12:51 Sunny 68 20 35 1.7 30 30 VRB 6 9 30.01 1016 10 16 N/A
1:51 pm 13:51 Sunny 70 21.1 37 2.8 30 30 SW 5 7 29.98 1015 10 16 N/A
2:51 pm 14:51 Sunny 71 21.7 36 2.2 28 28 N N/A 29.95 1014 10 16 N/A
3:51 pm 15:51 Sunny 67 19.4 37 2.8 33 33 SW 6 9 29.95 1014 10 16 N/A
4:51 pm 16:51 Sunny 67 19.4 36 2.2 32 32 W 7 11 29.94 1014 10 16 N/A
6:51 pm 18:51 Clear 58 14.4 35 1.7 42 42 WNW 3 6 29.96 1015 10 16 N/A
7:51 pm 19:51 Clear 53 11.7 34 1.1 48 48 N N/A 29.97 1015 10 16 N/A
8:51 pm 20:51 Clear 50 10 33 0.6 52 52 E 6 9 29.95 1014 10 16 N/A
9:51 pm 21:51 Clear 49 9.4 33 0.6 55 55 E 5 7 29.93 1013 10 16 N/A
10:51 pm 22:51 Clear with Light Rain 47 8.3 33 0.6 59 59 N N/A 29.93 1014 10 16 N/A
11:51 pm 23:51 Clear 47 8.3 31 -0.6 54 54 E 5 7 29.92 1013 10 16 N/A

Powered by AerisWeather